N765GA KHXD-3J6

Flight info

Callsign N765GA
Flight time 1h 18m
Altitude 8000
Route BROSE TWEST HABLE
Aircraft C172/L-SBDFGRY/E

Departure

Time 2026-04-26 23:45
Airport Hilton Head Airport (KHXD)

Arrival

Time 2026-04-27 01:03
Airport Davis Field (3J6)
Time Latitude Longitude Altitude Speed Heading
2026-04-26 23:23 32.22188 -80.69718 19 ft 0 kts 209°
2026-04-26 23:36 32.22177 -80.69737 19 ft 7 kts 276°
2026-04-26 23:36 32.22181 -80.69752 18 ft 0 kts 291°
2026-04-26 23:37 32.22183 -80.69761 18 ft 5 kts 269°
2026-04-26 23:37 32.22142 -80.69807 17 ft 12 kts 209°
2026-04-26 23:38 32.22052 -80.69861 15 ft 17 kts 208°
2026-04-26 23:38 32.21946 -80.69922 17 ft 15 kts 205°
2026-04-26 23:38 32.21856 -80.69974 17 ft 14 kts 206°
2026-04-26 23:38 32.21843 -80.69982 17 ft 0 kts 213°
2026-04-26 23:43 32.21840 -80.69984 17 ft 3 kts 207°
2026-04-26 23:43 32.21824 -80.70058 17 ft 16 kts 295°
2026-04-26 23:43 32.21894 -80.70062 16 ft 13 kts 27°
2026-04-26 23:44 32.22119 -80.69935 15 ft 57 kts 28°
2026-04-26 23:44 32.22529 -80.69676 111 ft 75 kts 33°
2026-04-26 23:44 32.23027 -80.69449 326 ft 74 kts 28°
2026-04-26 23:44 32.23517 -80.69227 422 ft 81 kts 34°
2026-04-26 23:45 32.24018 -80.68956 683 ft 80 kts 33°
2026-04-26 23:45 32.24506 -80.68649 908 ft 77 kts 33°
2026-04-26 23:45 32.24973 -80.68321 1071 ft 80 kts 33°
2026-04-26 23:45 32.25425 -80.67977 1263 ft 77 kts 29°
2026-04-26 23:46 32.25961 -80.67969 1435 ft 82 kts 351°
2026-04-26 23:46 32.26440 -80.68373 1627 ft 89 kts 312°
2026-04-26 23:46 32.26600 -80.69090 1816 ft 96 kts 270°
2026-04-26 23:46 32.26496 -80.69884 1972 ft 98 kts 269°
2026-04-26 23:47 32.26402 -80.70680 2124 ft 98 kts 268°
2026-04-26 23:47 32.26306 -80.71484 2277 ft 98 kts 268°
2026-04-26 23:47 32.26209 -80.72285 2449 ft 99 kts 268°
2026-04-26 23:47 32.26112 -80.73091 2610 ft 99 kts 268°
2026-04-26 23:48 32.26016 -80.73900 2755 ft 100 kts 268°
2026-04-26 23:48 32.25919 -80.74704 2920 ft 98 kts 268°
2026-04-26 23:48 32.25824 -80.75502 3085 ft 98 kts 268°
2026-04-26 23:48 32.25729 -80.76297 3238 ft 98 kts 268°
2026-04-26 23:49 32.25634 -80.77090 3414 ft 97 kts 268°
2026-04-26 23:49 32.25539 -80.77878 3575 ft 98 kts 268°
2026-04-26 23:49 32.25443 -80.78675 3732 ft 98 kts 268°
2026-04-26 23:49 32.25350 -80.79458 3911 ft 96 kts 268°
2026-04-26 23:50 32.25256 -80.80236 4074 ft 96 kts 268°
2026-04-26 23:50 32.25162 -80.81020 4210 ft 97 kts 269°
2026-04-26 23:50 32.25067 -80.81808 4360 ft 96 kts 268°
2026-04-26 23:50 32.24973 -80.82586 4529 ft 96 kts 268°
2026-04-26 23:51 32.24879 -80.83374 4686 ft 97 kts 269°
2026-04-26 23:51 32.24785 -80.84153 4854 ft 95 kts 268°
2026-04-26 23:51 32.24692 -80.84921 5000 ft 94 kts 269°
2026-04-26 23:51 32.24599 -80.85691 5129 ft 95 kts 269°
2026-04-26 23:52 32.24505 -80.86469 5269 ft 95 kts 268°
2026-04-26 23:52 32.24412 -80.87241 5408 ft 95 kts 269°
2026-04-26 23:52 32.24320 -80.88011 5538 ft 94 kts 269°
2026-04-26 23:52 32.24228 -80.88771 5661 ft 95 kts 269°
2026-04-26 23:53 32.24135 -80.89538 5808 ft 94 kts 269°
2026-04-26 23:53 32.24042 -80.90303 5933 ft 95 kts 269°
2026-04-26 23:53 32.23949 -80.91076 6059 ft 94 kts 269°
2026-04-26 23:53 32.23856 -80.91844 6191 ft 94 kts 270°
2026-04-26 23:54 32.23763 -80.92613 6318 ft 95 kts 269°
2026-04-26 23:54 32.23670 -80.93384 6437 ft 95 kts 269°
2026-04-26 23:54 32.23576 -80.94151 6560 ft 94 kts 269°
2026-04-26 23:54 32.23484 -80.94916 6673 ft 94 kts 269°
2026-04-26 23:55 32.23391 -80.95683 6794 ft 94 kts 269°
2026-04-26 23:55 32.23299 -80.96438 6905 ft 94 kts 269°
2026-04-26 23:55 32.23206 -80.97203 7007 ft 94 kts 269°
2026-04-26 23:55 32.23113 -80.97971 7129 ft 94 kts 269°
2026-04-26 23:56 32.23020 -80.98735 7251 ft 94 kts 269°
2026-04-26 23:56 32.22927 -80.99496 7361 ft 94 kts 269°
2026-04-26 23:56 32.22834 -81.00260 7465 ft 94 kts 269°
2026-04-26 23:56 32.22741 -81.01024 7577 ft 94 kts 269°
2026-04-26 23:57 32.22648 -81.01789 7684 ft 94 kts 269°
2026-04-26 23:57 32.22555 -81.02552 7785 ft 94 kts 269°
2026-04-26 23:57 32.22461 -81.03317 7900 ft 94 kts 269°
2026-04-26 23:57 32.22368 -81.04082 7982 ft 97 kts 269°
2026-04-26 23:58 32.22271 -81.04907 7996 ft 105 kts 269°
2026-04-26 23:58 32.22166 -81.05790 7996 ft 111 kts 268°
2026-04-26 23:58 32.22054 -81.06712 7995 ft 114 kts 268°
2026-04-26 23:58 32.21943 -81.07624 7998 ft 114 kts 268°
2026-04-26 23:59 32.21830 -81.08548 7999 ft 113 kts 268°
2026-04-26 23:59 32.21717 -81.09467 7996 ft 113 kts 268°
2026-04-26 23:59 32.21605 -81.10383 7997 ft 112 kts 268°
2026-04-26 23:59 32.21493 -81.11295 7994 ft 112 kts 268°
2026-04-27 00:00 32.21381 -81.12200 7994 ft 111 kts 268°
2026-04-27 00:00 32.21270 -81.13101 7995 ft 111 kts 268°
2026-04-27 00:00 32.21160 -81.14002 7992 ft 111 kts 268°
2026-04-27 00:00 32.21049 -81.14898 7990 ft 110 kts 268°
2026-04-27 00:01 32.20939 -81.15795 7988 ft 110 kts 268°
2026-04-27 00:01 32.20830 -81.16677 7989 ft 110 kts 268°
2026-04-27 00:01 32.20719 -81.17581 8009 ft 110 kts 268°
2026-04-27 00:01 32.20610 -81.18463 8007 ft 110 kts 268°
2026-04-27 00:02 32.20499 -81.19357 8007 ft 110 kts 268°
2026-04-27 00:02 32.20390 -81.20245 8005 ft 109 kts 268°
2026-04-27 00:02 32.20280 -81.21134 8002 ft 110 kts 267°
2026-04-27 00:02 32.20170 -81.22026 8002 ft 110 kts 268°
2026-04-27 00:03 32.20059 -81.22916 8003 ft 110 kts 268°
2026-04-27 00:03 32.19948 -81.23811 8002 ft 110 kts 268°
2026-04-27 00:03 32.19838 -81.24703 8009 ft 110 kts 268°
2026-04-27 00:03 32.19727 -81.25600 8009 ft 111 kts 268°
2026-04-27 00:04 32.19615 -81.26499 8006 ft 110 kts 268°
2026-04-27 00:04 32.19504 -81.27395 8007 ft 110 kts 268°
2026-04-27 00:04 32.19393 -81.28287 8009 ft 110 kts 268°
2026-04-27 00:04 32.19282 -81.29182 8008 ft 110 kts 268°
2026-04-27 00:05 32.19155 -81.30076 8002 ft 112 kts 258°
2026-04-27 00:05 32.18639 -81.30791 7997 ft 118 kts 223°
2026-04-27 00:05 32.17998 -81.31395 8002 ft 118 kts 225°
2026-04-27 00:05 32.17361 -81.32009 7999 ft 118 kts 225°
2026-04-27 00:06 32.16723 -81.32623 8001 ft 118 kts 225°
2026-04-27 00:06 32.16086 -81.33237 8005 ft 118 kts 225°
2026-04-27 00:06 32.15460 -81.33840 8003 ft 118 kts 225°
2026-04-27 00:06 32.14827 -81.34450 8003 ft 117 kts 225°
2026-04-27 00:07 32.14195 -81.35059 7998 ft 117 kts 225°
2026-04-27 00:07 32.13566 -81.35665 7997 ft 117 kts 225°
2026-04-27 00:07 32.12934 -81.36274 7998 ft 117 kts 225°
2026-04-27 00:07 32.12301 -81.36884 7996 ft 117 kts 225°
2026-04-27 00:08 32.11669 -81.37494 7997 ft 117 kts 225°
2026-04-27 00:08 32.11036 -81.38102 7998 ft 117 kts 225°
2026-04-27 00:08 32.10405 -81.38710 7996 ft 117 kts 225°
2026-04-27 00:08 32.09774 -81.39318 7997 ft 117 kts 225°
2026-04-27 00:09 32.09142 -81.39926 7991 ft 117 kts 225°
2026-04-27 00:09 32.08511 -81.40533 7992 ft 117 kts 225°
2026-04-27 00:09 32.07880 -81.41141 7994 ft 117 kts 225°
2026-04-27 00:09 32.07253 -81.41743 7992 ft 118 kts 225°
2026-04-27 00:10 32.06621 -81.42352 7991 ft 118 kts 225°
2026-04-27 00:10 32.05986 -81.42962 7987 ft 117 kts 225°
2026-04-27 00:10 32.05354 -81.43570 7974 ft 117 kts 225°
2026-04-27 00:10 32.04719 -81.44180 7974 ft 118 kts 225°
2026-04-27 00:11 32.04086 -81.44789 7975 ft 118 kts 225°
2026-04-27 00:11 32.03451 -81.45399 7977 ft 118 kts 225°
2026-04-27 00:11 32.02813 -81.46011 7975 ft 118 kts 225°
2026-04-27 00:11 32.02179 -81.46621 7975 ft 118 kts 225°
2026-04-27 00:12 32.01545 -81.47230 7976 ft 117 kts 225°
2026-04-27 00:12 32.00914 -81.47835 7973 ft 117 kts 225°
2026-04-27 00:12 32.00286 -81.48438 7975 ft 117 kts 225°
2026-04-27 00:12 31.99654 -81.49045 7976 ft 117 kts 225°
2026-04-27 00:13 31.99023 -81.49650 7978 ft 117 kts 225°
2026-04-27 00:13 31.98390 -81.50258 7975 ft 117 kts 225°
2026-04-27 00:13 31.97757 -81.50865 7978 ft 117 kts 225°
2026-04-27 00:13 31.97127 -81.51470 7978 ft 117 kts 225°
2026-04-27 00:14 31.96496 -81.52074 7978 ft 117 kts 225°
2026-04-27 00:14 31.95863 -81.52682 7977 ft 117 kts 225°
2026-04-27 00:14 31.95231 -81.53288 7978 ft 117 kts 225°
2026-04-27 00:14 31.94599 -81.53893 7982 ft 117 kts 225°
2026-04-27 00:15 31.93965 -81.54501 7980 ft 118 kts 225°
2026-04-27 00:15 31.93331 -81.55108 7977 ft 117 kts 225°
2026-04-27 00:15 31.92737 -81.55678 7980 ft 117 kts 225°
2026-04-27 00:15 31.92105 -81.56283 7976 ft 117 kts 225°
2026-04-27 00:16 31.91474 -81.56886 7972 ft 117 kts 225°
2026-04-27 00:16 31.90854 -81.57480 7975 ft 116 kts 225°
2026-04-27 00:16 31.90231 -81.58076 7986 ft 115 kts 225°
2026-04-27 00:16 31.89606 -81.58674 7980 ft 116 kts 225°
2026-04-27 00:17 31.88982 -81.59271 7984 ft 115 kts 225°
2026-04-27 00:17 31.88361 -81.59865 7981 ft 115 kts 225°
2026-04-27 00:17 31.87739 -81.60460 7981 ft 115 kts 225°
2026-04-27 00:17 31.87119 -81.61053 7983 ft 114 kts 225°
2026-04-27 00:18 31.86501 -81.61644 7983 ft 114 kts 225°
2026-04-27 00:18 31.85880 -81.62238 7988 ft 115 kts 226°
2026-04-27 00:18 31.85255 -81.62836 7981 ft 116 kts 225°
2026-04-27 00:18 31.84840 -81.63233 7979 ft 116 kts 225°
2026-04-27 00:19 31.84213 -81.63831 7981 ft 116 kts 226°
2026-04-27 00:19 31.83583 -81.64434 7979 ft 117 kts 225°
2026-04-27 00:19 31.82748 -81.65231 7983 ft 117 kts 225°
2026-04-27 00:19 31.82116 -81.65835 7982 ft 117 kts 226°
2026-04-27 00:20 31.81689 -81.66242 7983 ft 117 kts 225°
2026-04-27 00:20 31.81063 -81.66840 7977 ft 117 kts 225°
2026-04-27 00:20 31.80432 -81.67442 7975 ft 117 kts 225°
2026-04-27 00:20 31.79804 -81.68042 7977 ft 116 kts 225°
2026-04-27 00:21 31.79175 -81.68642 7969 ft 116 kts 225°
2026-04-27 00:21 31.78551 -81.69237 7970 ft 115 kts 225°
2026-04-27 00:21 31.77930 -81.69828 7968 ft 114 kts 225°
2026-04-27 00:21 31.77316 -81.70415 7969 ft 114 kts 225°
2026-04-27 00:22 31.76699 -81.71002 7966 ft 114 kts 226°
2026-04-27 00:22 31.76085 -81.71588 7964 ft 114 kts 225°
2026-04-27 00:22 31.75468 -81.72177 7966 ft 115 kts 225°
2026-04-27 00:22 31.74846 -81.72769 7964 ft 115 kts 225°
2026-04-27 00:23 31.74223 -81.73363 7964 ft 115 kts 225°
2026-04-27 00:23 31.73599 -81.73958 7965 ft 116 kts 225°
2026-04-27 00:23 31.72973 -81.74554 7980 ft 116 kts 225°
2026-04-27 00:23 31.72347 -81.75150 7982 ft 116 kts 225°
2026-04-27 00:24 31.71721 -81.75746 7982 ft 116 kts 225°
2026-04-27 00:24 31.71092 -81.76344 7985 ft 116 kts 225°
2026-04-27 00:24 31.70465 -81.76941 7984 ft 116 kts 225°
2026-04-27 00:24 31.69837 -81.77539 7986 ft 116 kts 225°
2026-04-27 00:25 31.69210 -81.78136 7987 ft 116 kts 225°
2026-04-27 00:25 31.68591 -81.78725 7987 ft 116 kts 225°
2026-04-27 00:25 31.67963 -81.79322 7988 ft 116 kts 225°
2026-04-27 00:25 31.67336 -81.79918 7988 ft 116 kts 225°
2026-04-27 00:26 31.66711 -81.80513 7991 ft 116 kts 225°
2026-04-27 00:26 31.66085 -81.81108 7993 ft 116 kts 225°
2026-04-27 00:26 31.65458 -81.81704 7994 ft 116 kts 225°
2026-04-27 00:26 31.64831 -81.82300 7996 ft 116 kts 225°
2026-04-27 00:27 31.64204 -81.82895 7997 ft 116 kts 225°
2026-04-27 00:27 31.63576 -81.83492 7997 ft 116 kts 225°
2026-04-27 00:27 31.62949 -81.84087 7999 ft 116 kts 225°
2026-04-27 00:27 31.62322 -81.84683 8000 ft 116 kts 225°
2026-04-27 00:28 31.61700 -81.85273 8000 ft 116 kts 225°
2026-04-27 00:28 31.61072 -81.85870 7999 ft 116 kts 225°
2026-04-27 00:28 31.60443 -81.86466 8001 ft 116 kts 225°
2026-04-27 00:28 31.59814 -81.87063 8001 ft 116 kts 225°
2026-04-27 00:29 31.59186 -81.87659 8000 ft 116 kts 225°
2026-04-27 00:29 31.58558 -81.88255 8000 ft 116 kts 225°
2026-04-27 00:29 31.57930 -81.88851 8000 ft 116 kts 225°
2026-04-27 00:29 31.57300 -81.89447 8000 ft 116 kts 225°
2026-04-27 00:30 31.56670 -81.90045 8000 ft 117 kts 225°
2026-04-27 00:30 31.56040 -81.90643 8000 ft 116 kts 225°
2026-04-27 00:30 31.55409 -81.91240 8000 ft 116 kts 225°
2026-04-27 00:30 31.54789 -81.91828 7998 ft 116 kts 225°
2026-04-27 00:31 31.54161 -81.92423 7998 ft 116 kts 224°
2026-04-27 00:31 31.53533 -81.93017 7996 ft 116 kts 225°
2026-04-27 00:31 31.52909 -81.93608 7996 ft 116 kts 225°
2026-04-27 00:31 31.52283 -81.94201 7995 ft 115 kts 225°
2026-04-27 00:32 31.51658 -81.94793 7996 ft 115 kts 225°
2026-04-27 00:32 31.51034 -81.95383 7996 ft 115 kts 225°
2026-04-27 00:32 31.50410 -81.95974 7995 ft 115 kts 224°
2026-04-27 00:32 31.49788 -81.96563 7995 ft 115 kts 225°
2026-04-27 00:33 31.49163 -81.97154 7994 ft 115 kts 225°
2026-04-27 00:33 31.48536 -81.97747 7992 ft 116 kts 225°
2026-04-27 00:33 31.47908 -81.98341 7991 ft 116 kts 225°
2026-04-27 00:33 31.47280 -81.98935 7990 ft 116 kts 225°
2026-04-27 00:34 31.46652 -81.99529 7990 ft 116 kts 225°
2026-04-27 00:34 31.46021 -82.00126 7988 ft 116 kts 225°
2026-04-27 00:34 31.45398 -82.00714 7986 ft 116 kts 225°
2026-04-27 00:34 31.44732 -82.01343 7985 ft 117 kts 225°
2026-04-27 00:35 31.44128 -82.01913 7982 ft 117 kts 224°
2026-04-27 00:35 31.43504 -82.02503 7982 ft 117 kts 225°
2026-04-27 00:35 31.42872 -82.03100 7979 ft 117 kts 224°
2026-04-27 00:35 31.42241 -82.03695 7978 ft 116 kts 225°
2026-04-27 00:36 31.41613 -82.04289 7974 ft 116 kts 224°
2026-04-27 00:36 31.40986 -82.04880 7972 ft 116 kts 225°
2026-04-27 00:36 31.40358 -82.05472 7971 ft 116 kts 225°
2026-04-27 00:36 31.39731 -82.06064 7968 ft 116 kts 224°
2026-04-27 00:37 31.39103 -82.06657 7968 ft 116 kts 224°
2026-04-27 00:37 31.38475 -82.07249 7967 ft 116 kts 224°
2026-04-27 00:37 31.37846 -82.07842 7963 ft 116 kts 224°
2026-04-27 00:37 31.37217 -82.08436 7958 ft 116 kts 224°
2026-04-27 00:38 31.36587 -82.09030 7958 ft 116 kts 224°
2026-04-27 00:38 31.35964 -82.09617 7956 ft 116 kts 224°
2026-04-27 00:38 31.35284 -82.10138 7933 ft 120 kts 202°
2026-04-27 00:38 31.34442 -82.10169 7938 ft 123 kts 175°
2026-04-27 00:39 31.33595 -82.10048 7938 ft 123 kts 176°
2026-04-27 00:39 31.32747 -82.09934 7940 ft 122 kts 176°
2026-04-27 00:39 31.31900 -82.09820 7939 ft 122 kts 176°
2026-04-27 00:39 31.31055 -82.09706 7937 ft 122 kts 176°
2026-04-27 00:40 31.30209 -82.09592 7937 ft 122 kts 176°
2026-04-27 00:40 31.29364 -82.09478 7936 ft 122 kts 176°
2026-04-27 00:40 31.28506 -82.09364 7861 ft 126 kts 176°
2026-04-27 00:40 31.27638 -82.09253 7748 ft 125 kts 176°
2026-04-27 00:41 31.26780 -82.09139 7619 ft 123 kts 176°
2026-04-27 00:41 31.25928 -82.09025 7484 ft 123 kts 176°
2026-04-27 00:41 31.25090 -82.08912 7359 ft 123 kts 176°
2026-04-27 00:41 31.24242 -82.08798 7229 ft 123 kts 175°
2026-04-27 00:42 31.23395 -82.08684 7100 ft 122 kts 175°
2026-04-27 00:42 31.22548 -82.08570 6972 ft 122 kts 176°
2026-04-27 00:42 31.21703 -82.08456 6839 ft 122 kts 175°
2026-04-27 00:42 31.20856 -82.08342 6712 ft 123 kts 175°
2026-04-27 00:43 31.20003 -82.08228 6577 ft 123 kts 175°
2026-04-27 00:43 31.19191 -82.08119 6454 ft 124 kts 175°
2026-04-27 00:43 31.18379 -82.08010 6323 ft 124 kts 175°
2026-04-27 00:43 31.17521 -82.07895 6190 ft 124 kts 175°
2026-04-27 00:44 31.16664 -82.07779 6058 ft 123 kts 175°
2026-04-27 00:44 31.15814 -82.07665 5927 ft 123 kts 175°
2026-04-27 00:44 31.14967 -82.07551 5796 ft 122 kts 175°
2026-04-27 00:44 31.14137 -82.07439 5701 ft 119 kts 175°
2026-04-27 00:45 31.13323 -82.07329 5609 ft 118 kts 175°
2026-04-27 00:45 31.12505 -82.07219 5497 ft 118 kts 174°
2026-04-27 00:45 31.11683 -82.07109 5377 ft 120 kts 175°
2026-04-27 00:45 31.10852 -82.06998 5250 ft 120 kts 175°
2026-04-27 00:46 31.10013 -82.06886 5120 ft 122 kts 174°
2026-04-27 00:46 31.09172 -82.06773 4992 ft 122 kts 174°
2026-04-27 00:46 31.08327 -82.06660 4866 ft 122 kts 174°
2026-04-27 00:46 31.07482 -82.06547 4735 ft 122 kts 174°
2026-04-27 00:47 31.06640 -82.06433 4599 ft 122 kts 174°
2026-04-27 00:47 31.05802 -82.06321 4473 ft 120 kts 174°
2026-04-27 00:47 31.04972 -82.06210 4343 ft 121 kts 174°
2026-04-27 00:47 31.04141 -82.06098 4222 ft 120 kts 174°
2026-04-27 00:48 31.03316 -82.05987 4095 ft 121 kts 174°
2026-04-27 00:48 31.02470 -82.05874 3968 ft 122 kts 174°
2026-04-27 00:48 31.01629 -82.05761 3843 ft 122 kts 174°
2026-04-27 00:48 31.00784 -82.05648 3713 ft 123 kts 174°
2026-04-27 00:49 30.99933 -82.05535 3581 ft 124 kts 174°
2026-04-27 00:49 30.99090 -82.05422 3456 ft 124 kts 174°
2026-04-27 00:49 30.98233 -82.05308 3322 ft 124 kts 174°
2026-04-27 00:49 30.97376 -82.05193 3190 ft 124 kts 174°
2026-04-27 00:50 30.96520 -82.05079 3056 ft 123 kts 173°
2026-04-27 00:50 30.94816 -82.04850 2798 ft 123 kts 173°
2026-04-27 00:50 30.93966 -82.04737 2681 ft 123 kts 173°
2026-04-27 00:51 30.93113 -82.04623 2539 ft 123 kts 173°
2026-04-27 00:51 30.92265 -82.04509 2409 ft 123 kts 172°
2026-04-27 00:51 30.91429 -82.04425 2289 ft 123 kts 180°
2026-04-27 00:51 30.90568 -82.04500 2160 ft 122 kts 182°
2026-04-27 00:52 30.89730 -82.04585 2067 ft 120 kts 183°
2026-04-27 00:52 30.88930 -82.04664 2059 ft 113 kts 183°
2026-04-27 00:52 30.88151 -82.04740 2059 ft 111 kts 183°
2026-04-27 00:52 30.87391 -82.04812 2062 ft 108 kts 183°
2026-04-27 00:53 30.86652 -82.04881 2061 ft 106 kts 183°
2026-04-27 00:53 30.85916 -82.04952 2063 ft 106 kts 184°
2026-04-27 00:53 30.85175 -82.05021 2067 ft 109 kts 182°
2026-04-27 00:53 30.84419 -82.05088 2073 ft 109 kts 178°
2026-04-27 00:54 30.83672 -82.05030 2079 ft 109 kts 174°
2026-04-27 00:54 30.82914 -82.04956 2081 ft 109 kts 172°
2026-04-27 00:54 30.82156 -82.04889 2082 ft 109 kts 173°
2026-04-27 00:54 30.81408 -82.04827 2084 ft 108 kts 173°
2026-04-27 00:55 30.80653 -82.04770 2081 ft 108 kts 174°
2026-04-27 00:55 30.79909 -82.04704 2082 ft 107 kts 169°
2026-04-27 00:55 30.79394 -82.04229 2081 ft 93 kts 96°
2026-04-27 00:55 30.79337 -82.03492 2078 ft 92 kts 92°
2026-04-27 00:56 30.79262 -82.02748 2079 ft 94 kts 93°
2026-04-27 00:56 30.79202 -82.01986 2077 ft 94 kts 91°
2026-04-27 00:56 30.79134 -82.01240 2076 ft 91 kts 92°
2026-04-27 00:56 30.79088 -82.00481 1969 ft 97 kts 85°
2026-04-27 00:57 30.79147 -81.99669 1854 ft 103 kts 83°
2026-04-27 00:57 30.79209 -81.98848 1727 ft 100 kts 83°
2026-04-27 00:57 30.79267 -81.98042 1609 ft 100 kts 84°
2026-04-27 00:57 30.79335 -81.97237 1480 ft 100 kts 79°
2026-04-27 00:58 30.79782 -81.96690 1339 ft 102 kts 13°
2026-04-27 00:58 30.80501 -81.96703 1217 ft 104 kts
2026-04-27 00:58 30.81205 -81.96717 1161 ft 100 kts
2026-04-27 00:58 30.81891 -81.96736 1149 ft 97 kts
2026-04-27 00:59 30.82518 -81.96953 1136 ft 99 kts 313°
2026-04-27 00:59 30.82533 -81.97697 1145 ft 99 kts 233°
2026-04-27 00:59 30.82120 -81.98346 1152 ft 100 kts 234°
2026-04-27 00:59 30.81703 -81.99009 1155 ft 103 kts 233°
2026-04-27 01:00 30.81285 -81.99695 1167 ft 104 kts 234°
2026-04-27 01:00 30.80861 -82.00377 1174 ft 104 kts 233°
2026-04-27 01:00 30.80405 -82.01026 1173 ft 103 kts 211°
2026-04-27 01:00 30.79730 -82.01138 1170 ft 97 kts 176°
2026-04-27 01:01 30.79060 -82.01160 1164 ft 99 kts 176°
2026-04-27 01:01 30.78363 -82.01186 962 ft 99 kts 180°
2026-04-27 01:01 30.77747 -82.01420 811 ft 94 kts 238°
2026-04-27 01:01 30.77706 -82.02163 619 ft 95 kts 276°
2026-04-27 01:02 30.77883 -82.02843 503 ft 78 kts 335°
2026-04-27 01:02 30.78410 -82.02869 309 ft 79 kts
2026-04-27 01:02 30.78928 -82.02840 198 ft 71 kts
2026-04-27 01:02 30.79412 -82.02820 80 ft 62 kts 353°
2026-04-27 01:03 30.79732 -82.02814 67 ft 23 kts
2026-04-27 01:03 30.79838 -82.02813 67 ft 12 kts 359°
2026-04-27 01:03 30.79870 -82.02888 65 ft 8 kts 264°
2026-04-27 01:03 30.79877 -82.02904 66 ft 0 kts 318°